Location: Poughquag
(41.6090°N, 73.6820°W)
Time: 12:45:41
(UTC-04:00)

S-56A Canister/Altair - Pass Details

Date: 29 May 2020
Orbit: 633 x 2499 km, 38.9° (Epoch: 06 July)

Event Time Altitude Azimuth Distance (km) Brightness Sun altitude
Rises 12:25:00 0° 282° (WNW) 5,007 11.6 69.3°
Reaches altitude 10° 12:28:25 10° 273° (W) 4,263 11.4 69.5°
Maximum altitude 12:38:34 33° 216° (SW) 3,327 11.6 69.9°
Drops below altitude 10° 12:50:51 10° 161° (SSE) 5,144 12.2 70.2°
Sets 12:55:32 0° 152° (SSE) 6,157 12.4 70.1°
